Date,TemperatureHighF,TemperatureAvgF,TemperatureLowF,DewpointHighF,DewpointAvgF,DewpointLowF,HumidityHigh,HumidityAvg,HumidityLow,PressureMaxIn,PressureMinIn,WindSpeedMaxMPH,WindSpeedAvgMPH,GustSpeedMaxMPH,PrecipitationSumIn
2013-2-8,32.5,30.5,28.0,31.0,29.2,27.0,95,95,94,29.71,29.59,13,6,19,0.29
2013-2-9,34.4,29.1,23.5,28.0,17.4,6.0,96,66,35,30.30,29.72,18,8,26,0.00
2013-2-10,38.8,29.0,20.6,27.0,13.5,7.0,77,54,35,30.46,30.30,7,2,15,0.03
2013-2-11,47.4,42.4,34.3,46.0,39.7,24.0,97,90,65,30.31,29.63,8,1,13,0.63
2013-2-12,46.8,43.0,38.8,41.0,27.3,24.0,89,55,44,29.94,29.69,15,5,22,0.00
2013-2-13,46.8,39.7,34.6,33.0,25.9,22.0,89,59,45,29.92,29.66,9,2,11,0.00
2013-2-14,47.5,40.2,35.2,36.0,30.3,22.0,91,70,38,29.97,29.68,9,2,12,0.02
2013-2-15,53.3,44.4,37.9,39.0,34.2,28.0,80,68,45,29.99,29.89,10,3,15,0.00
2013-2-16,43.5,37.0,32.4,35.0,26.3,15.0,89,67,48,29.94,29.70,11,4,22,0.00
2013-2-17,33.8,28.1,19.2,16.0,5.2,0.0,50,38,27,29.98,29.64,21,9,34,0.00
2013-2-18,37.7,28.3,18.8,15.0,6.2,1.0,51,40,26,30.22,29.98,12,5,39,0.00
2013-2-19,47.7,41.0,32.6,44.0,30.5,14.0,94,68,44,30.18,29.65,10,3,20,0.15
2013-2-20,39.7,32.7,27.0,26.0,14.1,9.0,62,47,36,29.96,29.70,17,6,24,0.00
2013-2-21,36.5,29.9,25.8,15.0,12.4,10.0,61,49,39,30.25,29.95,18,6,28,0.00
2013-2-22,38.9,33.4,27.2,33.0,23.1,15.0,81,66,55,30.38,30.23,8,3,12,0.00
2013-2-23,45.4,40.0,36.7,44.0,38.0,33.0,96,92,80,30.25,29.77,12,4,14,0.37
2013-2-24,48.6,40.7,35.2,39.0,32.1,22.0,96,74,50,29.94,29.71,12,5,25,0.01
2013-2-25,45.6,40.5,34.2,29.0,25.7,22.0,70,57,45,30.20,29.94,11,3,17,0.00
2013-2-26,45.2,40.0,35.2,36.0,31.8,28.0,91,74,56,30.26,29.87,15,5,21,0.13
2013-2-27,48.4,43.6,37.8,46.0,40.4,36.0,97,89,71,29.87,29.47,13,5,20,1.46
2013-2-28,53.1,46.5,40.8,39.0,34.5,28.0,80,64,47,29.60,29.51,9,2,13,0.00
2013-3-1,45.7,41.4,37.9,32.0,29.4,25.0,76,63,50,29.75,29.57,14,5,20,0.00
2013-3-2,41.0,37.3,32.8,29.0,25.1,23.0,82,62,50,29.75,29.67,12,5,17,0.00
2013-3-3,42.4,34.2,30.3,26.0,19.8,17.0,80,57,40,29.73,29.62,17,6,22,0.00
2013-3-4,43.3,35.4,28.6,21.0,19.2,16.0,65,53,40,29.88,29.73,15,7,26,0.00
2013-3-5,48.4,40.3,33.1,30.0,24.4,20.0,65,54,40,29.98,29.88,13,4,19,0.00
2013-3-6,42.3,40.4,37.6,36.0,32.3,29.0,84,73,64,29.95,29.81,18,9,32,0.00
2013-3-7,38.8,36.4,33.7,33.0,31.6,28.0,94,83,70,30.04,29.88,18,6,25,0.09
2013-3-8,43.0,36.3,31.8,34.0,31.5,27.0,97,84,55,30.15,29.97,24,7,24,0.19
2013-3-9,56.6,45.8,37.4,34.0,23.3,16.0,80,45,22,30.29,30.13,17,4,20,0.00
2013-3-10,47.5,40.6,36.0,36.0,34.4,33.0,90,79,61,30.36,30.28,7,3,12,0.00
2013-3-11,53.0,46.3,40.0,46.0,42.1,36.0,93,85,72,30.30,30.07,11,4,17,0.00
2013-3-12,57.0,49.7,45.6,54.0,46.9,38.0,96,90,73,30.07,29.64,15,6,27,0.79
2013-3-13,52.2,45.9,41.1,38.0,29.3,21.0,75,54,31,29.86,29.75,11,4,18,0.00
2013-3-14,43.2,36.8,31.0,26.0,12.7,6.0,60,38,23,29.93,29.81,21,7,27,0.00
2013-3-15,48.7,39.2,31.6,31.0,18.9,9.0,58,44,34,29.95,29.68,15,5,20,0.00
2013-3-16,43.5,37.3,34.2,32.0,26.8,19.0,91,68,47,29.88,29.75,9,3,17,0.06
2013-3-17,39.7,35.6,31.2,30.0,18.5,10.0,80,52,34,30.27,29.88,11,4,20,0.00
2013-3-18,36.7,33.1,29.2,34.0,20.0,7.0,97,62,36,30.37,29.99,16,5,19,0.00
2013-3-19,46.0,39.0,34.5,37.0,35.0,28.0,96,86,63,29.98,29.66,13,5,19,0.84
2013-3-20,47.1,40.9,34.2,27.0,18.8,15.0,64,42,28,29.86,29.75,14,5,24,0.00
2013-3-21,40.5,36.1,33.2,27.0,17.5,10.0,77,48,32,29.81,29.59,14,4,17,0.00
2013-3-22,43.2,37.5,30.6,23.0,17.5,12.0,60,45,35,29.85,29.70,13,5,21,0.00
2013-3-23,47.5,40.7,34.6,23.0,19.7,17.0,58,44,31,29.90,29.79,20,6,25,0.00
2013-3-24,47.2,40.8,34.9,28.0,22.0,19.0,59,48,35,29.92,29.68,12,3,22,0.00
2013-3-25,40.3,38.7,37.1,36.0,31.3,26.0,91,75,58,29.68,29.43,17,4,21,0.21
2013-3-26,53.0,45.5,39.3,31.0,27.7,24.0,72,52,33,29.83,29.55,11,4,17,0.00
2013-3-27,54.6,46.2,38.9,31.0,25.1,20.0,59,45,27,29.94,29.82,21,5,21,0.00
2013-3-28,51.5,45.2,39.7,34.0,29.9,28.0,68,56,43,30.07,29.92,13,5,18,0.00
2013-3-29,56.2,49.0,42.7,30.0,28.1,25.0,60,46,31,30.11,30.01,13,5,20,0.00
2013-3-30,60.3,49.3,42.7,37.0,29.0,19.0,72,48,21,30.13,30.03,11,3,14,0.00
2013-3-31,53.1,48.6,44.1,45.0,35.5,25.0,94,63,38,30.09,29.64,19,4,22,0.17
2013-4-1,63.2,50.4,39.4,46.0,37.6,12.0,95,65,30,29.87,29.58,17,6,27,0.00
2013-4-2,45.7,39.8,35.2,17.0,12.8,10.0,45,34,24,30.04,29.88,12,5,22,0.00
2013-4-3,48.4,40.6,34.9,15.0,11.7,9.0,41,31,21,30.25,30.05,16,6,24,0.00
2013-4-4,51.7,41.8,35.1,33.0,21.7,14.0,66,46,29,30.36,30.07,16,4,26,0.00
2013-4-5,64.9,50.3,42.2,35.0,25.2,16.0,72,42,18,30.06,29.67,23,4,30,0.00
2013-4-6,53.6,42.6,37.0,32.0,18.7,7.0,69,41,16,30.29,29.96,14,5,26,0.00
2013-4-7,52.3,48.3,40.4,44.0,37.2,24.0,80,66,44,30.28,29.98,19,6,28,0.00
2013-4-8,72.8,58.2,47.7,48.0,44.1,40.0,87,63,32,30.05,29.95,14,3,17,0.00
2013-4-9,84.2,69.7,51.6,53.0,43.9,33.0,86,47,17,29.98,29.87,13,4,19,0.00
2013-4-10,73.2,62.5,56.4,57.0,49.2,44.0,94,63,47,29.95,29.77,28,4,28,0.77
2013-4-11,61.1,55.6,48.4,59.0,50.0,40.0,96,82,65,30.02,29.74,13,4,19,0.03
2013-4-12,49.1,43.9,41.9,42.0,40.5,38.0,95,88,65,30.00,29.68,17,8,25,0.69
2013-4-13,57.6,48.4,41.7,45.0,39.0,32.0,95,72,42,29.95,29.71,9,3,14,0.04
2013-4-14,58.8,53.4,48.4,46.0,33.7,26.0,90,51,29,30.19,29.94,11,4,22,0.00
2013-4-15,56.3,49.8,45.7,41.0,30.8,26.0,79,50,35,30.35,30.19,9,4,15,0.00
2013-4-16,59.7,54.5,47.1,53.0,47.9,38.0,88,78,70,30.34,30.09,18,6,24,0.00
2013-4-17,70.8,61.9,54.8,57.0,46.1,35.0,88,60,28,30.26,30.07,8,3,13,0.01
2013-4-18,58.7,54.8,51.1,52.0,44.7,38.0,95,70,47,30.32,30.07,12,5,19,0.00
2013-4-19,67.0,59.2,53.6,60.0,56.6,53.0,98,91,78,30.07,29.62,16,6,28,0.01
2013-4-20,63.8,55.6,49.1,62.0,35.2,24.0,94,50,26,30.25,29.64,12,5,22,0.12
2013-4-21,54.2,45.8,38.9,33.0,23.5,18.0,62,43,26,30.59,30.26,15,5,27,0.00
2013-4-22,54.0,47.6,41.5,36.0,32.3,27.0,72,57,36,30.62,30.45,13,6,19,0.00
2013-4-23,53.4,46.3,41.9,43.0,38.0,33.0,90,73,62,30.45,30.08,13,5,18,0.00
2013-4-24,65.2,52.7,45.6,50.0,44.8,40.0,93,76,49,30.07,29.81,14,5,18,0.00
2013-4-25,67.1,56.9,47.9,54.0,32.4,20.0,93,44,17,30.23,29.84,11,4,27,0.00
2013-4-26,67.9,58.2,50.4,37.0,32.4,21.0,60,40,18,30.37,30.23,11,3,14,0.00
2013-4-27,69.4,58.3,49.2,36.0,29.2,24.0,46,34,18,30.39,30.26,13,4,15,0.00
2013-4-28,65.7,57.1,50.0,45.0,38.2,30.0,73,51,26,30.28,30.18,9,4,19,0.00
2013-4-29,57.4,55.1,53.3,50.0,47.8,45.0,85,76,66,30.21,30.15,9,4,13,0.05
2013-4-30,65.4,57.8,53.0,48.0,36.6,21.0,82,51,19,30.30,30.18,12,4,15,0.00
2013-5-1,65.8,57.0,49.1,46.0,39.3,30.0,74,53,33,30.45,30.30,11,3,16,0.00
2013-5-2,68.5,58.8,49.6,47.0,43.1,40.0,83,58,41,30.44,30.30,9,2,12,0.00
2013-5-3,62.4,55.4,50.1,45.0,41.2,35.0,82,60,38,30.42,30.34,10,4,15,0.00
2013-5-4,65.2,54.9,48.9,46.0,43.5,39.0,84,67,40,30.34,30.23,14,4,17,0.00
2013-5-5,59.5,52.1,46.5,45.0,41.4,37.0,80,67,47,30.27,30.20,12,5,15,0.00
2013-5-6,66.3,55.7,47.7,51.0,47.1,43.0,85,74,56,30.24,30.13,7,3,11,0.00
2013-5-7,72.7,62.1,52.9,59.0,53.7,48.0,89,74,58,30.14,30.05,7,3,12,0.00
2013-5-8,64.1,59.8,56.6,60.0,56.8,52.0,96,90,80,30.08,29.94,9,3,13,3.36
2013-5-9,69.4,60.7,55.9,59.0,55.9,54.0,96,85,64,29.98,29.86,6,2,9,0.40
2013-5-10,81.2,67.8,60.4,58.0,56.0,50.0,86,68,39,29.96,29.85,12,3,17,0.00
2013-5-11,66.8,63.8,61.3,63.0,61.1,58.0,95,91,76,29.87,29.67,7,3,16,0.74
2013-5-12,69.6,63.6,53.7,63.0,41.1,24.0,93,48,20,29.90,29.62,16,5,25,0.03
2013-5-13,58.2,52.9,48.2,33.0,27.8,23.0,56,39,26,30.07,29.90,14,5,21,0.00
2013-5-14,63.9,54.4,44.7,40.0,27.8,20.0,64,40,19,30.09,29.98,11,3,16,0.00
2013-5-15,69.9,59.5,52.2,59.0,46.7,33.0,78,63,46,30.04,29.65,10,3,18,0.00
2013-5-16,80.1,71.4,64.6,58.0,50.2,41.0,75,49,30,29.79,29.68,9,2,14,0.00
2013-5-17,75.4,68.2,61.9,43.0,40.0,35.0,46,36,27,30.17,29.79,11,3,24,0.00
2013-5-18,65.5,61.3,58.1,55.0,50.3,42.0,81,68,45,30.28,30.16,7,2,10,0.01
2013-5-19,58.8,57.7,55.9,58.0,55.6,50.0,97,92,73,30.29,30.14,9,4,16,0.64
2013-5-20,79.4,67.8,58.7,66.0,62.5,58.0,98,84,63,30.14,29.93,9,2,14,0.00
2013-5-21,87.4,75.7,66.0,69.0,66.7,64.0,94,75,53,29.94,29.80,10,3,14,0.00
2013-5-22,78.0,69.1,59.8,69.0,63.8,58.0,93,84,67,29.90,29.81,8,3,11,0.00
2013-5-23,79.0,68.2,63.4,69.0,64.5,62.0,95,88,66,29.86,29.73,14,4,17,0.19
2013-5-24,68.8,57.8,46.7,64.0,54.3,43.0,96,88,74,29.91,29.65,11,4,22,0.34
2013-5-25,55.4,50.5,46.1,47.0,42.8,38.0,90,76,57,29.97,29.86,15,6,32,0.13
2013-5-26,70.5,59.2,49.1,41.0,36.6,33.0,69,46,26,30.17,29.92,15,5,25,0.00
2013-5-27,75.0,65.5,54.5,44.0,37.5,33.0,51,37,23,30.22,30.08,12,3,14,0.00
2013-5-28,73.4,62.6,57.8,58.0,50.5,41.0,96,68,34,30.19,30.09,10,2,11,0.48
2013-5-29,81.4,69.9,58.6,68.0,62.5,58.0,97,79,62,30.10,29.97,7,2,11,0.00
2013-5-30,94.1,83.5,74.7,68.0,65.1,60.0,78,56,32,30.09,30.02,10,4,14,0.00
2013-5-31,94.7,84.4,76.9,68.0,65.4,62.0,69,54,38,30.09,29.95,10,3,16,0.00
2013-6-1,88.6,80.8,72.4,68.0,66.6,64.0,78,63,50,29.99,29.87,10,4,15,0.00
2013-6-2,85.4,77.7,67.4,70.0,66.0,63.0,86,68,53,29.89,29.74,10,4,16,0.02
2013-6-3,78.9,72.5,69.2,69.0,66.5,48.0,94,82,44,29.84,29.77,11,3,13,0.73
2013-6-4,78.3,68.9,59.9,49.0,42.1,37.0,54,39,26,30.07,29.85,13,4,21,0.00
2013-6-5,74.4,67.0,59.7,56.0,44.3,36.0,84,46,32,30.17,30.07,10,4,17,0.00
2013-6-6,71.7,65.0,59.6,60.0,56.4,46.0,92,76,42,30.12,29.98,11,4,16,0.10
2013-6-7,63.7,61.9,59.2,63.0,60.6,58.0,97,95,90,29.97,29.59,11,5,20,4.21
2013-6-8,78.6,47.7,57.5,63.0,15.0,-99.9,98,59,57,30.01,29.54,12,-277,18,0.87
2013-6-9,-200.0,0.0,200.0,-99.9,-99.9,-99.9,0,0,100,30.14,30.01,0,-999,0,0.00
2013-6-10,-200.0,0.0,200.0,-99.9,-99.9,-99.9,0,0,100,30.13,29.81,0,-999,0,0.00
2013-6-11,-200.0,0.0,200.0,-99.9,-99.9,-99.9,0,0,100,29.80,29.58,0,-999,0,0.00
2013-6-12,-200.0,0.0,200.0,-99.9,-99.9,-99.9,0,0,100,29.82,29.67,0,-999,0,0.00
2013-6-13,-200.0,0.0,200.0,-99.9,-99.9,-99.9,0,0,100,29.81,29.42,0,-999,0,0.00
2013-6-14,-200.0,0.0,200.0,-99.9,-99.9,-99.9,0,0,100,29.85,29.48,0,-999,0,0.00
2013-6-15,-200.0,0.0,200.0,-99.9,-99.9,-99.9,0,0,100,29.97,29.85,0,-999,0,0.00
2013-6-16,-200.0,0.0,200.0,-99.9,-99.9,-99.9,0,0,100,29.96,29.74,0,-999,0,0.00
2013-6-17,-200.0,0.0,200.0,-99.9,-99.9,-99.9,0,0,100,29.88,29.80,0,-999,0,0.00
2013-6-18,-200.0,0.0,200.0,-99.9,-99.9,-99.9,0,0,100,29.87,29.79,0,-999,0,0.00
2013-6-19,67.6,6.4,66.9,55.0,-85.2,-99.9,64,6,60,30.13,29.84,4,-903,8,0.00
2013-6-20,79.7,71.5,63.4,58.0,53.7,49.0,69,54,43,30.24,30.14,12,4,16,0.00
2013-6-21,83.5,73.2,65.1,57.0,52.3,47.0,63,49,37,30.27,30.21,10,4,16,0.00
2013-6-22,84.8,73.6,65.4,63.0,56.2,47.0,69,55,38,30.23,30.11,9,3,18,0.00
2013-6-23,86.9,77.8,70.1,72.0,66.1,57.0,86,68,52,30.16,30.03,10,4,16,0.00
2013-6-24,95.4,83.7,75.3,72.0,68.9,61.0,89,64,32,30.04,29.91,13,4,23,0.00
2013-6-25,93.9,84.1,75.2,71.0,66.7,63.0,73,57,38,29.96,29.77,15,5,23,0.00
2013-6-26,89.6,81.8,75.5,72.0,67.3,64.0,82,63,43,29.81,29.75,13,4,14,0.00
2013-6-27,85.5,78.9,73.9,73.0,70.8,68.0,93,77,57,29.80,29.54,9,3,24,0.14
2013-6-28,88.4,79.3,73.8,72.0,69.5,65.0,91,73,50,29.54,29.44,13,5,15,0.03
2013-6-29,84.9,76.8,71.4,72.0,68.7,65.0,87,77,53,29.67,29.46,12,3,17,0.00
2013-6-30,86.1,76.0,71.4,74.0,71.4,69.0,93,86,66,29.89,29.67,10,4,16,0.00
2013-7-1,76.4,74.0,72.4,74.0,71.5,70.0,94,92,88,30.03,29.87,12,3,15,0.69
2013-7-2,83.2,76.4,72.0,75.0,72.3,70.0,96,87,74,30.16,30.02,8,3,12,0.11
2013-7-3,86.9,79.3,73.9,74.0,72.0,70.0,89,79,63,30.22,30.14,9,3,16,0.00